Location: Oslo
(59.9170°N, 10.7500°E)
Time: 02:09:17
(UTC+01:00)

ISS - Visible Passes

Search period start: 23 March 2019 00:00
Search period end: 02 April 2019 01:00
Orbit: 406 x 411 km, 51.6° (Epoch: 23 March)

Date Brightness Start Highest point End Pass type
(mag) Time Alt. Az. Time Alt. Az. Time Alt. Az.
24 Mar -1.2 21:09:06 10° SSW 21:09:24 11° SSW 21:09:24 11° SSW visible
25 Mar -1.9 20:18:32 10° SSW 20:20:33 15° SSE 20:20:42 15° SSE visible
26 Mar -1.6 19:28:12 10° S 19:29:43 13° SSE 19:31:14 10° SE visible
26 Mar -1.9 21:02:59 10° SW 21:04:37 18° SSW 21:04:37 18° SSW visible
27 Mar -2.0 20:12:11 10° SW 20:14:33 18° S 20:15:40 16° SE visible
27 Mar -1.1 21:48:01 10° SW 21:48:25 12° SW 21:48:25 12° SW visible
28 Mar -2.1 20:57:00 10° SW 20:59:24 19° S 20:59:24 19° S visible
29 Mar -2.0 20:06:02 10° SW 20:08:32 20° S 20:10:20 13° SE visible
29 Mar -1.3 21:42:22 10° SW 21:43:03 12° SW 21:43:03 12° SW visible
30 Mar -1.9 20:51:09 10° WSW 20:53:24 17° SSW 20:53:57 16° S visible
31 Mar -1.9 21:00:04 10° SW 21:02:28 19° S 21:04:50 10° SE visible
31 Mar -1.1 22:37:20 10° SW 22:37:33 10° SW 22:37:33 10° SW visible
01 Apr -1.5 21:45:33 10° SW 21:47:15 13° SSW 21:48:25 12° S visible
